[[{"header":{"parameterUnit":"m.s-1","parameterCategory":1,"la1":30.2991,"la2":30.254,"lo1":-89.0895,"lo2":-89.0444,"dy":0.0017,"dx":0.0017,"nx":28,"ny":28,"refTime":"2024-08-13T21:00:00:Z","depth":0,"parameterNumber":2,"parameterNumberName":"U-component_of_WINDS"},"data":[0,0,0,0,0,0,0,0,0,0,0,0,0,0,0,0,0,0,0,0,0,0,0,0,0,0,0,0,0,0,0,0,0,0,0,0,0,0,0,0,0,0,0,0,0,0,0,0,0,0,0,0,0,0,0,0,0,0,2.7803,2.7803,0,2.7811,2.7811,2.7812,2.7751,2.775,2.7748,2.7746,2.7756,2.7758,2.776,0,0,0,0,0,0,0,0,0,0,0,0,0,2.7739,2.774,2.7803,2.7803,2.7803,2.7811,2.7811,2.7812,2.7752,2.775,2.7748,2.7746,2.7756,2.7758,2.776,0,0,0,0,0,0,0,0,0,0,0,0,0,2.7759,2.7741,2.7803,2.7774,2.7772,2.7811,2.7811,2.7812,2.7752,2.775,2.7747,2.7745,2.7755,2.7758,2.776,2.7828,0,0,2.7769,2.777,0,0,0,0,0,0,0,0,2.7758,2.7761,2.7779,2.7776,2.7774,2.7778,2.7792,2.7817,2.7753,2.776,2.7746,2.7743,2.7765,2.7767,2.7774,2.7828,2.7829,2.7769,2.7771,2.7772,2.7773,0,0,0,0,0,0,0,2.7757,2.7761,2.7806,2.7779,2.7776,2.7762,2.7762,2.7797,2.7777,2.7759,2.7755,2.7756,2.7764,2.7772,2.7774,2.7829,2.7769,2.7771,2.7773,2.7774,2.7942,2.7945,0,0,0,0,0,0,2.7759,2.776,2.7806,2.7807,2.7759,2.7765,2.7765,2.7779,2.7776,2.7773,2.7758,2.7753,2.7768,2.7771,2.7774,2.7855,2.7772,2.7774,2.7776,2.7939,2.7943,2.7946,0,0,0,0,0,0,2.7758,2.7763,2.7806,2.7782,2.7787,2.7769,2.7785,2.7781,2.7788,2.7776,2.7772,2.777,2.7766,2.777,2.7816,2.7855,2.7776,2.7778,2.7936,2.794,2.7944,2.8016,0,0,0,0,0,0,2.7756,2.7763,2.7788,2.7783,2.7788,2.7846,2.7787,2.7783,2.7793,2.7787,2.7786,2.7783,2.7765,2.7812,2.7818,2.7857,2.778,2.7932,2.7938,2.7943,2.801,2.8023,2.8033,0,0,0,0,0,2.7754,2.7808,2.779,2.7795,2.7818,2.7849,2.7851,2.7828,2.7797,2.7822,2.7814,2.7783,2.7849,2.7817,2.7824,2.7864,2.793,2.7936,2.7943,2.8005,2.802,2.8033,0,0,0,0,0,0,2.7817,2.7806,2.7786,2.784,2.7846,2.7838,2.7869,2.7844,2.786,2.7853,2.7825,2.7825,2.7876,2.7874,2.7838,2.7931,2.7884,2.7892,2.793,2.7944,2.7955,2.7954,2.7782,0,0,0,0,0,2.7838,2.7862,2.7852,2.79,2.7904,2.7887,2.7899,2.7881,2.7886,2.7888,2.7884,2.789,2.7913,2.7928,2.7948,2.801,2.801,2.8041,2.8053,2.8062,2.8069,2.8104,2.8119,2.7967,2.7967,2.7966,0,0,2.7879,2.7877,2.7894,2.7913,2.7915,2.7943,2.7889,2.792,2.794,2.7893,2.7936,2.7933,2.7939,2.7994,2.8018,2.7994,2.8111,2.807,2.8077,2.808,2.8112,2.8127,2.814,2.7971,2.797,2.7969,0,0,2.797,2.797,2.8011,2.8015,2.802,2.8008,2.8018,2.8015,2.8012,2.8054,2.802,2.8045,2.8083,2.809,2.8098,2.8194,2.8167,2.8202,2.826,2.8295,2.8307,2.8318,2.8354,2.8367,2.8209,2.8209,2.8209,0,2.8022,2.8061,2.8035,2.8069,2.808,2.8039,2.8081,2.8087,2.8098,2.8106,2.808,2.8129,2.813,2.8187,2.8211,2.8218,2.823,2.8201,2.8307,2.8318,2.8327,2.8361,2.8375,2.8214,2.8213,2.8213,2.8212,0,2.8125,2.8153,2.8186,2.8199,2.8213,2.8251,2.8232,2.825,2.8232,2.8224,2.8269,2.8269,2.8289,2.8301,2.8283,2.8357,2.8342,2.8312,2.8265,2.8346,2.8378,2.8391,2.822,2.8218,2.8217,2.8216,0,0,2.8254,2.8254,2.8266,2.8273,2.8276,2.8298,2.8335,2.8355,2.8371,2.8381,2.8413,2.8448,2.8421,2.843,2.8413,2.8444,2.8523,2.841,2.841,2.8432,2.8606,2.8629,2.8644,2.8505,2.8507,2.8509,2.8606,0,2.8344,2.8407,2.8386,2.8451,2.8478,2.8441,2.8474,2.848,2.8474,2.8497,2.8491,2.8517,2.8478,2.8484,2.8512,2.8507,2.8557,2.85,2.8535,2.8537,2.8536,2.866,2.8684,2.8775,2.8618,2.862,2.8621,0,2.8456,2.8471,2.8539,2.854,2.855,2.858,2.8598,2.862,2.8627,2.8621,2.8633,2.8611,2.8649,2.8602,2.8656,2.8617,2.8631,2.8631,2.8634,2.8637,2.8584,2.8668,2.8803,2.8818,2.864,2.8638,2.8637,0,2.8546,2.8583,2.8628,2.8634,2.8636,2.8659,2.8661,2.8666,2.868,2.8696,2.8705,2.8726,2.8737,2.8754,2.8738,2.8705,2.8796,2.8746,2.8793,2.8793,2.8813,2.8812,2.8954,2.8821,2.8821,2.8821,2.882,0,2.8648,2.8691,2.8669,2.8697,2.8745,2.8722,2.877,2.8768,2.8774,2.8802,2.8771,2.8799,2.8775,2.8801,2.8789,2.8837,2.8842,2.8839,2.8836,2.8842,2.8843,2.8851,2.8845,2.8824,2.8823,2.8823,2.8822,0,2.8756,2.8742,2.879,2.8789,2.879,2.8825,2.8825,2.8851,2.8844,2.888,2.8888,2.8877,2.8906,2.8892,2.8922,2.8914,2.8976,2.8963,2.8973,2.897,2.9018,2.9014,2.917,2.919,2.9044,2.9045,2.9046,0,2.8822,2.8855,2.8858,2.8874,2.8879,2.8906,2.892,2.89,2.8917,2.8929,2.8955,2.8982,2.9002,2.9051,2.9046,2.907,2.9058,2.9111,2.9061,2.9068,2.906,2.9059,2.9063,2.9122,2.9123,2.9125,2.9126,0,2.8943,2.8935,2.8957,2.8978,2.8996,2.9011,2.9024,2.9039,2.902,2.904,2.907,2.9086,2.9118,2.9145,2.9166,2.917,2.9146,2.9142,2.9154,2.9161,2.9166,2.9166,2.9002,2.9138,2.9137,2.9136,2.9135,2.9135,2.9032,2.906,2.9067,2.9094,2.9101,2.9115,2.914,2.9137,2.9161,2.9185,2.9172,2.9207,2.9217,2.9243,2.925,2.9278,2.9257,2.9274,2.9278,2.9283,2.929,2.9162,2.9281,2.9281,2.9281,2.928,2.928,0,2.9152,2.9155,2.918,2.9199,2.922,2.9196,2.9209,2.9229,2.926,2.9271,2.9292,2.9327,2.9354,2.9352,2.9378,2.9401,2.9391,2.9408,2.9407,2.9409,2.9307,2.9294,2.9416,2.9416,2.9416,2.9416,2.9416,2.9416,2.9217,2.9264,2.9258,2.9309,2.9311,2.9346,2.9356,2.9369,2.9377,2.9418,2.944,2.9439,2.9445,2.9471,2.9496,2.9495,2.9506,2.9529,2.9524,2.9429,2.9415,2.9402,2.9391,2.9531,2.9531,2.9623,2.9624,2.9625]},{"header":{"parameterUnit":"m.s-1","parameterCategory":1,"la1":30.2991,"la2":30.254,"lo1":-89.0895,"lo2":-89.0444,"dy":0.0017,"dx":0.0017,"nx":28,"ny":28,"refTime":"2024-08-13T21:00:00:Z","depth":0,"parameterNumber":3,"parameterNumberName":"V-component_of_WINDS"},"data":[0,0,0,0,0,0,0,0,0,0,0,0,0,0,0,0,0,0,0,0,0,0,0,0,0,0,0,0,0,0,0,0,0,0,0,0,0,0,0,0,0,0,0,0,0,0,0,0,0,0,0,0,0,0,0,0,0,0,-1.4539,-1.4539,0,-1.4572,-1.4572,-1.4572,-1.4577,-1.4577,-1.4576,-1.4576,-1.461,-1.4611,-1.4612,0,0,0,0,0,0,0,0,0,0,0,0,0,-1.4482,-1.4483,-1.4539,-1.4539,-1.454,-1.4572,-1.4572,-1.4573,-1.4577,-1.4577,-1.4576,-1.4576,-1.4609,-1.4611,-1.4612,0,0,0,0,0,0,0,0,0,0,0,0,0,-1.451,-1.4483,-1.4539,-1.4546,-1.4547,-1.4572,-1.4572,-1.4573,-1.4577,-1.4577,-1.4576,-1.4576,-1.4609,-1.4611,-1.4612,-1.4632,0,0,-1.4618,-1.4618,0,0,0,0,0,0,0,0,-1.4508,-1.4512,-1.4544,-1.4545,-1.4547,-1.457,-1.4564,-1.4593,-1.4577,-1.4566,-1.4576,-1.4576,-1.4597,-1.4599,-1.4607,-1.4634,-1.4635,-1.4618,-1.4619,-1.462,-1.462,0,0,0,0,0,0,0,-1.4506,-1.4511,-1.4552,-1.4545,-1.4546,-1.4548,-1.4551,-1.457,-1.4583,-1.4567,-1.4567,-1.4571,-1.4597,-1.4605,-1.4607,-1.4636,-1.4618,-1.4619,-1.462,-1.4621,-1.4684,-1.4684,0,0,0,0,0,0,-1.4503,-1.4509,-1.4551,-1.4553,-1.4526,-1.4549,-1.4553,-1.4563,-1.4583,-1.4586,-1.4571,-1.4571,-1.4602,-1.4605,-1.4609,-1.4635,-1.462,-1.4621,-1.4622,-1.4683,-1.4684,-1.4684,0,0,0,0,0,0,-1.4502,-1.4507,-1.455,-1.4531,-1.4537,-1.4551,-1.4562,-1.4564,-1.4571,-1.4587,-1.4589,-1.4576,-1.4602,-1.4606,-1.4627,-1.4636,-1.4622,-1.4624,-1.4682,-1.4683,-1.4684,-1.4687,0,0,0,0,0,0,-1.45,-1.4506,-1.4513,-1.4531,-1.4538,-1.4567,-1.4562,-1.4565,-1.4574,-1.4574,-1.4592,-1.4595,-1.4602,-1.4624,-1.4629,-1.4638,-1.4625,-1.4681,-1.4683,-1.4684,-1.4686,-1.4688,-1.4689,0,0,0,0,0,-1.4498,-1.4512,-1.4514,-1.4519,-1.4547,-1.4567,-1.4571,-1.4579,-1.4575,-1.4583,-1.4593,-1.4594,-1.4634,-1.4626,-1.4631,-1.4642,-1.4681,-1.4682,-1.4684,-1.4685,-1.4687,-1.4689,0,0,0,0,0,0,-1.4495,-1.4515,-1.4517,-1.4537,-1.455,-1.4568,-1.4578,-1.458,-1.4595,-1.4595,-1.4604,-1.4608,-1.4629,-1.4637,-1.4628,-1.4663,-1.4657,-1.466,-1.4657,-1.4659,-1.4661,-1.4659,-1.4626,0,0,0,0,0,-1.4497,-1.4511,-1.4528,-1.4544,-1.4551,-1.4563,-1.4572,-1.4578,-1.4592,-1.4598,-1.4609,-1.4623,-1.4639,-1.465,-1.4665,-1.4687,-1.4692,-1.4697,-1.4699,-1.47,-1.4702,-1.4717,-1.472,-1.4689,-1.4689,-1.4689,0,0,-1.45,-1.4513,-1.4521,-1.4544,-1.4555,-1.4571,-1.4568,-1.4584,-1.4596,-1.46,-1.4621,-1.463,-1.4646,-1.4669,-1.4679,-1.4676,-1.4712,-1.4702,-1.4703,-1.4704,-1.4719,-1.4722,-1.4724,-1.469,-1.469,-1.4689,0,0,-1.4515,-1.4525,-1.4541,-1.4553,-1.457,-1.4578,-1.4582,-1.46,-1.4606,-1.4627,-1.4631,-1.4646,-1.4673,-1.4685,-1.4695,-1.4717,-1.4719,-1.4721,-1.473,-1.4744,-1.4747,-1.4749,-1.4759,-1.4762,-1.4723,-1.4723,-1.4723,0,-1.4517,-1.454,-1.4549,-1.4565,-1.4576,-1.4581,-1.4598,-1.4609,-1.463,-1.4638,-1.4634,-1.467,-1.4681,-1.4708,-1.4713,-1.472,-1.4726,-1.472,-1.4746,-1.4748,-1.475,-1.476,-1.4763,-1.4724,-1.4724,-1.4724,-1.4724,0,-1.4543,-1.4559,-1.457,-1.4591,-1.4603,-1.462,-1.4632,-1.4643,-1.4648,-1.4657,-1.468,-1.4694,-1.4713,-1.4719,-1.4723,-1.4747,-1.4745,-1.4744,-1.4738,-1.4754,-1.4763,-1.4766,-1.4724,-1.4724,-1.4724,-1.4724,0,0,-1.4555,-1.4582,-1.4586,-1.4597,-1.4617,-1.4631,-1.4648,-1.4668,-1.4678,-1.4693,-1.4709,-1.4733,-1.4733,-1.4744,-1.475,-1.4762,-1.4781,-1.4759,-1.476,-1.4764,-1.481,-1.4812,-1.4816,-1.4782,-1.4783,-1.4784,-1.4809,0,-1.4573,-1.4604,-1.4614,-1.4641,-1.4657,-1.4663,-1.4679,-1.4694,-1.4703,-1.4719,-1.473,-1.4747,-1.4744,-1.4752,-1.4764,-1.4776,-1.479,-1.4774,-1.4799,-1.4799,-1.4795,-1.482,-1.4821,-1.4844,-1.4813,-1.4813,-1.4813,0,-1.4597,-1.4614,-1.4643,-1.4664,-1.4671,-1.4685,-1.4705,-1.4719,-1.4737,-1.4743,-1.4757,-1.4762,-1.4782,-1.4776,-1.4804,-1.4793,-1.4804,-1.4812,-1.4813,-1.4816,-1.4808,-1.4825,-1.4852,-1.4856,-1.4819,-1.4818,-1.4818,0,-1.4605,-1.4635,-1.4657,-1.4665,-1.4689,-1.47,-1.471,-1.4727,-1.4739,-1.4757,-1.4765,-1.4784,-1.4795,-1.4811,-1.4822,-1.4816,-1.4851,-1.4844,-1.4858,-1.4857,-1.4865,-1.4864,-1.4895,-1.487,-1.487,-1.487,-1.487,0,-1.4625,-1.4643,-1.4661,-1.4674,-1.4695,-1.4706,-1.4727,-1.4737,-1.4753,-1.477,-1.4776,-1.4791,-1.4805,-1.4822,-1.4831,-1.4855,-1.4859,-1.4866,-1.4868,-1.4866,-1.4865,-1.4874,-1.4873,-1.4871,-1.4871,-1.487,-1.487,0,-1.4637,-1.465,-1.4674,-1.4695,-1.4701,-1.4716,-1.4735,-1.4749,-1.4759,-1.478,-1.4786,-1.4803,-1.4824,-1.4837,-1.4863,-1.4869,-1.4896,-1.4897,-1.489,-1.4892,-1.4905,-1.4904,-1.4943,-1.4949,-1.4919,-1.4919,-1.4919,0,-1.4649,-1.4663,-1.4686,-1.4698,-1.4709,-1.4728,-1.474,-1.4753,-1.4766,-1.4788,-1.48,-1.4822,-1.484,-1.4874,-1.4889,-1.491,-1.4913,-1.4925,-1.4916,-1.4914,-1.4915,-1.4914,-1.4917,-1.4927,-1.4927,-1.4927,-1.4927,0,-1.4669,-1.4675,-1.4693,-1.4714,-1.473,-1.4747,-1.4764,-1.4773,-1.4788,-1.4803,-1.4826,-1.484,-1.4868,-1.4891,-1.4914,-1.4925,-1.493,-1.493,-1.4935,-1.4933,-1.4929,-1.4933,-1.4896,-1.4929,-1.4929,-1.4929,-1.4929,-1.4929,-1.4682,-1.4696,-1.4715,-1.4736,-1.4751,-1.4767,-1.4782,-1.4795,-1.4814,-1.4838,-1.4844,-1.4868,-1.4888,-1.492,-1.4932,-1.4952,-1.495,-1.4956,-1.4958,-1.4959,-1.4961,-1.4925,-1.4956,-1.4956,-1.4956,-1.4956,-1.4956,0,-1.4704,-1.4717,-1.4736,-1.4761,-1.4778,-1.4781,-1.48,-1.4814,-1.4836,-1.4854,-1.4872,-1.4899,-1.4921,-1.4939,-1.4962,-1.4975,-1.4978,-1.4981,-1.498,-1.4984,-1.496,-1.4955,-1.4978,-1.4978,-1.4978,-1.4978,-1.4978,-1.4978,-1.4717,-1.4742,-1.4751,-1.4783,-1.4796,-1.482,-1.4831,-1.4847,-1.4862,-1.4892,-1.4911,-1.4922,-1.4941,-1.4966,-1.4987,-1.4992,-1.5001,-1.5004,-1.5009,-1.4987,-1.4985,-1.4983,-1.4978,-1.5006,-1.5006,-1.5032,-1.5032,-1.5032]}]]